FW7729 Weather Reports


time (UTC)temp
C
wind
direction
speed
KPH
gust
KPH
rain 1hr
cm
rain 24hr
cm
rain mn
cm
humidity
%
barometer
mb
20260509130826 13 171 0.0 0.0 0.00 0.00 0.00 81 1010.9
20260509130252 13 171 0.0 0.0 0.00 0.00 0.00 81 1010.8
20260509125717 13 171 1.6 0.0 0.00 0.00 0.00 81 1010.8
20260509125143 13 160 0.0 0.0 0.00 0.00 0.00 80 1010.7
20260509124609 13 156 1.6 0.0 0.00 0.00 0.00 80 1010.7
20260509124035 13 199 3.2 0.0 0.00 0.00 0.00 80 1010.7
20260509123501 13 169 1.6 0.0 0.00 0.00 0.00 79 1010.7
20260509122927 13 164 3.2 0.0 0.00 0.00 0.00 79 1010.7
20260509121823 13 157 0.0 0.0 0.00 0.00 0.00 79 1010.7
20260509121249 13 170 1.6 0.0 0.00 0.00 0.00 78 1010.7
20260509120715 13 145 1.6 0.0 0.00 0.00 0.00 78 1010.7
20260509120141 13 176 3.2 0.0 0.00 0.00 0.00 78 1010.6
20260509115607 13 170 3.2 0.0 0.00 0.00 0.00 78 1010.6
20260509114503 13 165 1.6 0.0 0.00 0.00 0.00 77 1010.7
20260509113359 13 162 3.2 0.0 0.00 0.00 0.00 76 1010.7
20260509111724 13 166 1.6 0.0 0.00 0.00 0.00 74 1010.3
20260509111150 13 168 1.6 0.0 0.00 0.00 0.00 73 1010.4
20260509105516 14 168 1.6 0.0 0.00 0.00 0.00 71 1010.3
20260509104942 14 165 1.6 0.0 0.00 0.00 0.00 70 1010.3
20260509103838 14 166 1.6 0.0 0.00 0.00 0.00 69 1010.2
20260509103304 14 161 0.0 0.0 0.00 0.00 0.00 70 1010.2
20260509102200 14 161 0.0 0.0 0.00 0.00 0.00 69 1010.2
20260509100526 14 216 0.0 0.0 0.00 0.00 0.00 70 1010.2
20260509095952 14 216 0.0 0.0 0.00 0.00 0.00 69 1010.1
20260509094848 14 222 1.6 0.0 0.00 0.00 0.00 70 1009.9
20260509094314 14 222 0.0 0.0 0.00 0.00 0.00 70 1010.0
20260509093740 14 222 0.0 0.0 0.00 0.00 0.00 70 1010.0
20260509093205 14 222 0.0 0.0 0.00 0.00 0.00 70 1010.1
20260509092632 13 231 0.0 0.0 0.00 0.00 0.00 70 1010.1
20260509092057 13 231 0.0 0.0 0.00 0.00 0.00 71 1010.2
20260509091523 13 231 0.0 0.0 0.00 0.00 0.00 71 1010.2
20260509090949 13 228 0.0 0.0 0.00 0.00 0.00 72 1010.3
20260509090415 13 206 0.0 0.0 0.00 0.00 0.00 72 1010.3
20260509083641 13 142 0.0 0.0 0.00 0.00 0.00 72 1010.5
20260509082537 13 142 0.0 0.0 0.00 0.00 0.00 72 1010.5
20260509082003 13 173 1.6 0.0 0.00 0.00 0.00 72 1010.5
20260509080859 13 166 1.6 0.0 0.00 0.00 0.00 72 1010.8
20260509080325 13 191 1.6 0.0 0.00 0.00 0.00 72 1010.8
20260509075751 13 172 3.2 0.0 0.00 0.00 0.00 71 1010.9
20260509074117 13 149 1.6 0.0 0.00 0.00 0.00 72 1011.1
20260509073543 13 183 1.6 0.0 0.00 0.00 0.00 72 1011.0
20260509073009 13 181 3.2 0.0 0.00 0.00 0.00 71 1011.0
20260509072435 13 184 3.2 0.0 0.00 0.00 0.00 71 1011.0
20260509071331 13 177 1.6 0.0 0.00 0.00 0.00 71 1011.0
20260509070757 13 166 3.2 0.0 0.00 0.00 0.00 70 1011.0
20260509065652 13 180 3.2 0.0 0.00 0.00 0.00 70 1011.0
20260509065118 13 166 3.2 0.0 0.00 0.00 0.00 69 1011.0
20260509063444 14 157 3.2 0.0 0.00 0.00 0.00 68 1011.2
20260509062340 14 185 3.2 0.0 0.00 0.00 0.00 68 1011.2
20260509061806 14 168 1.6 0.0 0.00 0.00 0.00 68 1011.2
20260509055032 14 183 1.6 0.0 0.00 0.00 0.00 68 1011.4
20260509054458 14 170 3.2 0.0 0.00 0.00 0.00 67 1011.4
20260509053924 14 164 1.6 0.0 0.00 0.00 0.00 67 1011.3
20260509053350 14 162 3.2 0.0 0.00 0.00 0.00 67 1011.4
20260509052816 14 183 1.6 0.0 0.00 0.00 0.00 67 1011.4
20260509052242 14 163 1.6 0.0 0.00 0.00 0.00 66 1011.5
20260509050037 15 158 1.6 0.0 0.00 0.00 0.00 65 1011.4
20260509045503 15 158 1.6 0.0 0.00 0.00 0.00 64 1011.3
20260509044929 15 158 1.6 0.0 0.00 0.00 0.00 64 1011.3
20260509044355 15 166 1.6 0.0 0.00 0.00 0.00 64 1011.4
20260509043821 15 175 1.6 0.0 0.00 0.00 0.00 64 1011.3
20260509043247 15 176 1.6 0.0 0.00 0.00 0.00 64 1011.4
20260509042713 15 191 0.0 0.0 0.00 0.00 0.00 64 1011.5
20260509042139 15 176 1.6 0.0 0.00 0.00 0.00 64 1011.6
20260509041035 15 176 1.6 0.0 0.00 0.00 0.00 64 1011.6
20260509035931 15 167 1.6 0.0 0.00 0.00 0.00 65 1011.5
20260509034257 15 160 1.6 0.0 0.00 0.00 0.00 65 1011.7
20260509033152 15 152 1.6 0.0 0.00 0.00 0.00 66 1011.7
20260509031518 15 169 3.2 0.0 0.00 0.00 0.00 66 1011.8
20260509030944 15 170 1.6 0.0 0.00 0.00 0.00 66 1011.8
20260509030410 15 176 1.6 0.0 0.00 0.00 0.00 66 1012.0
20260509025307 15 176 1.6 0.0 0.00 0.00 0.00 65 1012.1
20260509024732 15 177 0.0 0.0 0.00 0.00 0.00 66 1012.0
20260509022528 15 176 0.0 0.0 0.00 0.00 0.00 66 1011.9
20260509021954 15 176 0.0 0.0 0.00 0.00 0.00 67 1011.9
20260509020320 16 176 0.0 0.0 0.00 0.00 0.00 64 1011.9
20260509015746 16 176 0.0 0.0 0.00 0.00 0.00 64 1011.8
20260509015212 16 176 0.0 0.0 0.00 0.00 0.00 63 1011.8
20260509014638 16 176 0.0 0.0 0.00 0.00 0.00 63 1011.7
20260509013534 16 176 0.0 0.0 0.00 0.00 0.00 63 1011.7
20260509012959 16 176 0.0 0.0 0.00 0.00 0.00 62 1011.8
20260509011855 16 176 0.0 0.0 0.00 0.00 0.00 62 1011.9
20260509011321 17 176 0.0 0.0 0.00 0.00 0.00 61 1011.7
20260509010747 17 176 1.6 0.0 0.00 0.00 0.00 61 1011.7
20260509010213 17 176 0.0 0.0 0.00 0.00 0.00 61 1011.7
20260509005638 17 176 0.0 0.0 0.00 0.00 0.00 60 1011.7
20260509004534 17 176 0.0 0.0 0.00 0.00 0.00 59 1011.6
20260509004000 17 176 0.0 0.0 0.00 0.00 0.00 58 1011.4
20260509003427 18 176 0.0 0.0 0.00 0.00 0.00 58 1011.5
20260509002322 18 176 0.0 0.0 0.00 0.00 0.00 58 1011.4
20260508234448 19 177 0.0 0.0 0.00 0.00 0.00 55 1011.1
20260508233914 19 177 1.6 0.0 0.00 0.00 0.00 54 1011.1
20260508232810 19 177 1.6 0.0 0.00 0.00 0.00 54 1011.0
20260508231136 19 162 1.6 0.0 0.00 0.00 0.00 54 1010.9
20260508230031 19 166 1.6 0.0 0.00 0.00 0.00 53 1011.0
20260508224357 20 166 3.2 0.0 0.00 0.00 0.00 51 1010.8
20260508223823 20 183 1.6 0.0 0.00 0.00 0.00 49 1010.7
20260508222719 20 190 0.0 0.0 0.00 0.00 0.00 49 1010.8
20260508221045 20 190 0.0 0.0 0.00 0.00 0.00 48 1010.8
20260508220511 20 185 0.0 0.0 0.00 0.00 0.00 49 1010.8
20260508214307 20 154 3.2 0.0 0.00 0.00 0.00 47 1010.6
20260508213733 20 207 1.6 0.0 0.00 0.00 0.00 48 1010.5
20260508213159 20 207 0.0 0.0 0.00 0.00 0.00 49 1010.7
20260508212625 20 207 0.0 0.0 0.00 0.00 0.00 48 1010.8
20260508212051 20 224 1.6 0.0 0.00 0.00 0.00 49 1010.9
20260508210947 20 227 3.2 0.0 0.00 0.00 0.00 47 1010.8
20260508205843 20 168 0.0 0.0 0.00 0.00 0.00 48 1010.7
20260508205309 20 272 1.6 0.0 0.00 0.00 0.00 48 1010.8
20260508204735 20 212 0.0 0.0 0.00 0.00 0.00 49 1010.8
20260508204201 20 211 1.6 0.0 0.00 0.00 0.00 49 1010.9
20260508203056 20 269 1.6 0.0 0.00 0.00 0.00 45 1011.1
20260508202523 20 280 1.6 0.0 0.00 0.00 0.00 45 1011.3
20260508201948 20 241 1.6 0.0 0.00 0.00 0.00 45 1011.2
20260508201414 20 275 3.2 0.0 0.00 0.00 0.00 46 1011.2
20260508195210 20 258 3.2 0.0 0.00 0.00 0.00 47 1011.5
20260508194636 20 258 0.0 0.0 0.00 0.00 0.00 46 1011.5
20260508194102 20 258 1.6 0.0 0.00 0.00 0.00 47 1011.5
20260508193528 20 226 4.8 0.0 0.00 0.00 0.00 47 1011.6
20260508192954 20 235 1.6 0.0 0.00 0.00 0.00 48 1011.7
20260508192420 20 179 0.0 0.0 0.00 0.00 0.00 49 1011.6
20260508191846 20 276 3.2 0.0 0.00 0.00 0.00 47 1011.9
20260508191312 20 278 3.2 0.0 0.00 0.00 0.00 48 1012.0
20260508184538 19 283 1.6 0.0 0.00 0.00 0.00 48 1012.5
20260508184004 19 265 1.6 0.0 0.00 0.00 0.00 50 1012.6
20260508182900 18 280 3.2 0.0 0.00 0.00 0.00 49 1012.7
20260508182326 19 222 0.0 0.0 0.00 0.00 0.00 49 1012.6
20260508181222 19 262 1.6 0.0 0.00 0.00 0.00 50 1012.7
20260508180648 19 252 1.6 0.0 0.00 0.00 0.00 49 1012.8
20260508180114 18 241 1.6 0.0 0.00 0.00 0.00 49 1013.0
20260508175539 19 281 3.2 0.0 0.00 0.00 0.00 49 1013.0
20260508175005 19 262 1.6 0.0 0.00 0.00 0.00 46 1013.0
20260508172801 18 244 6.4 0.0 0.00 0.00 0.00 49 1013.1
20260508172227 18 341 3.2 0.0 0.00 0.00 0.00 50 1013.4
20260508170553 18 220 3.2 0.0 0.00 0.00 0.00 51 1013.6
20260508170019 18 222 4.8 0.0 0.00 0.00 0.00 49 1013.5
20260508165445 18 220 4.8 0.0 0.00 0.00 0.00 51 1013.6
20260508164911 18 280 1.6 0.0 0.00 0.00 0.00 52 1013.7
20260508164337 18 278 3.2 0.0 0.00 0.00 0.00 53 1013.8
20260508163233 18 262 3.2 0.0 0.00 0.00 0.00 51 1013.9
20260508162659 18 228 3.2 0.0 0.00 0.00 0.00 51 1014.0
20260508162125 17 240 3.2 0.0 0.00 0.00 0.00 52 1014.1
20260508161551 17 270 3.2 0.0 0.00 0.00 0.00 53 1014.2
20260508161017 17 266 3.2 1.6 0.00 0.00 0.00 53 1014.2
20260508160443 17 285 6.4 1.6 0.00 0.00 0.00 52 1014.4
20260508155909 17 288 0.0 0.0 0.00 0.00 0.00 55 1014.3
20260508154805 17 218 3.2 0.0 0.00 0.00 0.00 53 1014.4
20260508153701 17 235 1.6 0.0 0.00 0.00 0.00 53 1014.4
20260508153127 17 233 1.6 0.0 0.00 0.00 0.00 56 1014.4
20260508152023 17 217 6.4 0.0 0.00 0.00 0.00 52 1014.6
20260508151449 17 298 1.6 0.0 0.00 0.00 0.00 56 1014.7
20260508144140 15 289 1.6 0.0 0.00 0.00 0.00 57 1014.9
20260508143606 15 219 1.6 0.0 0.00 0.00 0.00 56 1015.1
20260508143032 15 277 1.6 0.0 0.00 0.00 0.00 58 1015.0
20260508141928 15 227 4.8 0.0 0.00 0.00 0.00 58 1015.2
20260508140254 15 278 1.6 0.0 0.00 0.00 0.00 58 1015.2
20260508135720 15 216 1.6 0.0 0.00 0.00 0.00 59 1015.2
20260508135146 14 285 1.6 0.0 0.00 0.00 0.00 59 1015.3
20260508134612 14 220 3.2 0.0 0.00 0.00 0.00 60 1015.3
20260508134038 15 216 3.2 0.0 0.00 0.00 0.00 60 1015.3
20260508133504 15 290 0.0 0.0 0.00 0.00 0.00 61 1015.5
20260508132930 15 289 1.6 0.0 0.00 0.00 0.00 59 1015.4
20260508132356 14 354 0.0 0.0 0.00 0.00 0.00 65 1015.5
20260508131252 13 246 0.0 0.0 0.00 0.00 0.00 70 1015.5